Time,TemperatureF,DewpointF,PressureIn,WindDirection,WindDirectionDegrees,WindSpeedMPH,WindSpeedGustMPH,Humidity,HourlyPrecipIn,Conditions,Clouds,dailyrainin,SolarRadiationWatts/m^2,SoftwareType,DateUTC
2013-03-13 00:03:00,46.0,31.6,30.12,WSW,242,0.0,0.0,57,0.00,,,0.00,0,WeatherCatV1.14B232,2013-03-13 07:03:00,
2013-03-13 00:08:00,46.0,29.8,30.12,WSW,243,0.0,2.0,53,0.00,,,0.00,0,WeatherCatV1.14B232,2013-03-13 07:08:00,
2013-03-13 00:13:00,46.0,33.3,30.12,WSW,243,0.0,0.0,61,0.00,,,0.00,0,WeatherCatV1.14B232,2013-03-13 07:13:00,
2013-03-13 00:18:00,46.0,32.1,30.12,WSW,243,0.0,0.0,58,0.00,,,0.00,0,WeatherCatV1.14B232,2013-03-13 07:18:00,
2013-03-13 00:23:00,46.0,33.3,30.12,WSW,243,0.0,0.0,61,0.00,,,0.00,0,WeatherCatV1.14B232,2013-03-13 07:23:00,
2013-03-13 00:28:00,46.0,32.5,30.12,WSW,243,0.0,0.0,59,0.00,,,0.00,0,WeatherCatV1.14B232,2013-03-13 07:28:00,
2013-03-13 00:33:00,45.8,30.6,30.13,WSW,243,0.0,0.0,55,0.00,,,0.00,0,WeatherCatV1.14B232,2013-03-13 07:33:00,
2013-03-13 00:38:00,45.7,30.0,30.13,WSW,242,3.0,3.0,54,0.00,,,0.00,0,WeatherCatV1.14B232,2013-03-13 07:38:00,
2013-03-13 00:43:00,45.4,29.3,30.13,SW,233,2.0,4.0,53,0.00,,,0.00,0,WeatherCatV1.14B232,2013-03-13 07:43:00,
2013-03-13 00:48:00,45.2,29.6,30.13,SW,233,0.0,0.0,54,0.00,,,0.00,0,WeatherCatV1.14B232,2013-03-13 07:48:00,
2013-03-13 00:53:00,45.1,28.5,30.13,SW,233,0.0,0.0,52,0.00,,,0.00,0,WeatherCatV1.14B232,2013-03-13 07:53:00,
2013-03-13 00:58:00,44.9,27.9,30.13,SW,233,0.0,2.0,51,0.00,,,0.00,0,WeatherCatV1.14B232,2013-03-13 07:58:00,
2013-03-13 01:03:00,44.9,28.4,30.13,SW,233,0.0,0.0,52,0.00,,,0.00,0,WeatherCatV1.14B232,2013-03-13 08:03:00,
2013-03-13 01:08:00,44.8,28.7,30.13,SW,233,0.0,0.0,53,0.00,,,0.00,0,WeatherCatV1.14B232,2013-03-13 08:08:00,
2013-03-13 01:13:00,44.8,29.6,30.13,SW,233,0.0,0.0,55,0.00,,,0.00,0,WeatherCatV1.14B232,2013-03-13 08:13:00,
2013-03-13 01:18:00,44.8,29.2,30.11,SW,233,1.0,1.0,54,0.00,,,0.00,0,WeatherCatV1.14B232,2013-03-13 08:18:00,
2013-03-13 01:23:00,44.8,28.3,30.11,SW,233,2.0,2.0,52,0.00,,,0.00,0,WeatherCatV1.14B232,2013-03-13 08:23:00,
2013-03-13 01:28:00,44.9,29.7,30.11,SW,233,0.0,0.0,55,0.00,,,0.00,0,WeatherCatV1.14B232,2013-03-13 08:28:00,
2013-03-13 01:33:00,44.9,27.9,30.11,SW,233,0.0,0.0,51,0.00,,,0.00,0,WeatherCatV1.14B232,2013-03-13 08:33:00,
2013-03-13 01:38:00,44.9,29.7,30.11,SW,233,0.0,0.0,55,0.00,,,0.00,0,WeatherCatV1.14B232,2013-03-13 08:38:00,
2013-03-13 01:43:00,44.9,31.5,30.11,SW,234,0.0,0.0,59,0.00,,,0.00,0,WeatherCatV1.14B232,2013-03-13 08:43:00,
2013-03-13 01:48:00,44.8,30.1,30.11,SW,233,0.0,0.0,56,0.00,,,0.00,0,WeatherCatV1.14B232,2013-03-13 08:48:00,
2013-03-13 01:53:00,44.9,31.0,30.11,NW,314,3.0,3.0,58,0.00,,,0.00,0,WeatherCatV1.14B232,2013-03-13 08:53:00,
2013-03-13 01:59:00,45.2,30.4,30.11,NW,314,0.0,0.0,56,0.00,,,0.00,0,WeatherCatV1.14B232,2013-03-13 08:59:00,
2013-03-13 02:04:00,45.1,29.0,30.11,WNW,303,0.0,0.0,53,0.00,,,0.00,0,WeatherCatV1.14B232,2013-03-13 09:04:00,
2013-03-13 02:09:00,45.1,27.6,30.11,WNW,303,0.0,0.0,50,0.00,,,0.00,0,WeatherCatV1.14B232,2013-03-13 09:09:00,
2013-03-13 02:14:00,45.1,28.1,30.07,WNW,303,2.0,2.0,51,0.00,,,0.00,0,WeatherCatV1.14B232,2013-03-13 09:14:00,
2013-03-13 02:19:00,45.1,28.5,30.07,WNW,303,0.0,0.0,52,0.00,,,0.00,0,WeatherCatV1.14B232,2013-03-13 09:19:00,
2013-03-13 02:24:00,45.1,28.5,30.07,WNW,303,0.0,0.0,52,0.00,,,0.00,0,WeatherCatV1.14B232,2013-03-13 09:24:00,
2013-03-13 02:29:00,45.1,28.5,30.08,WNW,303,0.0,0.0,52,0.00,,,0.00,0,WeatherCatV1.14B232,2013-03-13 09:29:00,
2013-03-13 02:34:00,45.1,28.5,30.08,WNW,303,0.0,0.0,52,0.00,,,0.00,0,WeatherCatV1.14B232,2013-03-13 09:34:00,
2013-03-13 02:39:00,45.1,28.1,30.08,WNW,303,0.0,0.0,51,0.00,,,0.00,0,WeatherCatV1.14B232,2013-03-13 09:39:00,
2013-03-13 02:44:00,44.9,28.4,30.07,WNW,303,0.0,0.0,52,0.00,,,0.00,0,WeatherCatV1.14B232,2013-03-13 09:44:00,
2013-03-13 02:49:00,45.1,28.5,30.07,WNW,303,0.0,3.0,52,0.00,,,0.00,0,WeatherCatV1.14B232,2013-03-13 09:49:00,
2013-03-13 02:54:00,45.1,28.5,30.07,WNW,303,0.0,2.0,52,0.00,,,0.00,0,WeatherCatV1.14B232,2013-03-13 09:54:00,
2013-03-13 02:59:00,44.9,28.4,30.07,WNW,303,0.0,2.0,52,0.00,,,0.00,0,WeatherCatV1.14B232,2013-03-13 09:59:00,
2013-03-13 03:04:00,44.9,28.4,30.07,WNW,303,1.0,3.0,52,0.00,,,0.00,0,WeatherCatV1.14B232,2013-03-13 10:04:00,
2013-03-13 03:09:00,44.9,28.8,30.07,NW,305,2.0,3.0,53,0.00,,,0.00,0,WeatherCatV1.14B232,2013-03-13 10:09:00,
2013-03-13 03:14:00,44.9,28.8,30.03,WNW,299,3.0,4.0,53,0.00,,,0.00,0,WeatherCatV1.14B232,2013-03-13 10:14:00,
2013-03-13 03:19:00,44.8,28.7,30.03,WNW,293,4.0,5.0,53,0.00,,,0.00,0,WeatherCatV1.14B232,2013-03-13 10:19:00,
2013-03-13 03:24:00,44.6,28.1,30.03,WNW,293,3.0,4.0,52,0.00,,,0.00,0,WeatherCatV1.14B232,2013-03-13 10:24:00,
2013-03-13 03:29:00,44.3,28.3,30.05,WNW,293,4.0,4.0,53,0.00,,,0.00,0,WeatherCatV1.14B232,2013-03-13 10:29:00,
2013-03-13 03:34:00,43.9,28.8,30.05,WNW,293,0.0,3.0,55,0.00,,,0.00,0,WeatherCatV1.14B232,2013-03-13 10:34:00,
2013-03-13 03:39:00,43.5,29.3,30.05,WNW,288,1.0,4.0,57,0.00,,,0.00,0,WeatherCatV1.14B232,2013-03-13 10:39:00,
2013-03-13 03:44:00,43.2,29.9,30.05,WNW,288,0.0,0.0,59,0.00,,,0.00,0,WeatherCatV1.14B232,2013-03-13 10:44:00,
2013-03-13 03:49:00,42.9,29.6,30.05,WNW,288,2.0,4.0,59,0.00,,,0.00,0,WeatherCatV1.14B232,2013-03-13 10:49:00,
2013-03-13 03:54:00,42.8,29.5,30.05,WNW,288,0.0,0.0,59,0.00,,,0.00,0,WeatherCatV1.14B232,2013-03-13 10:54:00,
2013-03-13 03:59:00,42.6,28.9,30.04,WNW,293,3.0,4.0,58,0.00,,,0.00,0,WeatherCatV1.14B232,2013-03-13 10:59:00,
2013-03-13 04:04:00,42.8,29.1,30.04,WNW,283,6.0,9.0,58,0.00,,,0.00,0,WeatherCatV1.14B232,2013-03-13 11:04:00,
2013-03-13 04:09:00,42.8,29.1,30.04,WNW,283,3.0,6.0,58,0.00,,,0.00,0,WeatherCatV1.14B232,2013-03-13 11:09:00,
2013-03-13 04:14:00,42.8,29.1,30.06,West,278,4.0,5.0,58,0.00,,,0.00,0,WeatherCatV1.14B232,2013-03-13 11:14:00,
2013-03-13 04:19:00,42.6,29.7,30.06,WNW,283,4.0,5.0,60,0.00,,,0.00,0,WeatherCatV1.14B232,2013-03-13 11:19:00,
2013-03-13 04:24:00,42.3,29.4,30.06,WNW,288,2.0,4.0,60,0.00,,,0.00,0,WeatherCatV1.14B232,2013-03-13 11:24:00,
2013-03-13 04:29:00,42.1,29.2,30.06,NW,310,4.0,6.0,60,0.00,,,0.00,0,WeatherCatV1.14B232,2013-03-13 11:29:00,
2013-03-13 04:34:00,42.1,28.8,30.06,NW,305,4.0,5.0,59,0.00,,,0.00,0,WeatherCatV1.14B232,2013-03-13 11:34:00,
2013-03-13 04:39:00,42.1,29.2,30.06,WNW,293,3.0,3.0,60,0.00,,,0.00,0,WeatherCatV1.14B232,2013-03-13 11:39:00,
2013-03-13 04:44:00,42.2,28.9,30.06,WNW,283,5.0,6.0,59,0.00,,,0.00,0,WeatherCatV1.14B232,2013-03-13 11:44:00,
2013-03-13 04:49:00,42.2,28.9,30.06,West,279,3.0,5.0,59,0.00,,,0.00,0,WeatherCatV1.14B232,2013-03-13 11:49:00,
2013-03-13 04:54:00,42.2,28.9,30.06,WNW,288,3.0,4.0,59,0.00,,,0.00,0,WeatherCatV1.14B232,2013-03-13 11:54:00,
2013-03-13 04:59:00,42.1,29.2,30.06,WNW,288,5.0,5.0,60,0.00,,,0.00,0,WeatherCatV1.14B232,2013-03-13 11:59:00,
2013-03-13 05:04:00,42.1,28.4,30.06,WNW,288,4.0,5.0,58,0.00,,,0.00,0,WeatherCatV1.14B232,2013-03-13 12:04:00,
2013-03-13 05:09:00,42.1,28.4,30.06,NNW,327,0.0,5.0,58,0.00,,,0.00,0,WeatherCatV1.14B232,2013-03-13 12:09:00,
2013-03-13 05:14:00,41.9,27.8,30.08,WNW,299,0.0,4.0,57,0.00,,,0.00,0,WeatherCatV1.14B232,2013-03-13 12:14:00,
2013-03-13 05:19:00,41.9,26.5,30.08,WNW,300,3.0,6.0,54,0.00,,,0.00,0,WeatherCatV1.14B232,2013-03-13 12:19:00,
2013-03-13 05:24:00,42.2,25.9,30.08,WNW,288,3.0,4.0,52,0.00,,,0.00,0,WeatherCatV1.14B232,2013-03-13 12:24:00,
2013-03-13 05:29:00,42.3,24.5,30.08,WNW,303,0.0,4.0,49,0.00,,,0.00,0,WeatherCatV1.14B232,2013-03-13 12:29:00,
2013-03-13 05:34:00,42.8,22.9,30.08,WNW,303,3.0,3.0,45,0.00,,,0.00,0,WeatherCatV1.14B232,2013-03-13 12:34:00,
2013-03-13 05:39:00,43.2,22.8,30.08,WNW,303,3.0,6.0,44,0.00,,,0.00,0,WeatherCatV1.14B232,2013-03-13 12:39:00,
2013-03-13 05:44:00,43.3,23.4,30.08,WNW,297,3.0,5.0,45,0.00,,,0.00,0,WeatherCatV1.14B232,2013-03-13 12:44:00,
2013-03-13 05:49:00,43.5,25.6,30.08,WNW,283,6.0,6.0,49,0.00,,,0.00,0,WeatherCatV1.14B232,2013-03-13 12:49:00,
2013-03-13 05:54:00,43.3,26.4,30.08,WNW,288,4.0,6.0,51,0.00,,,0.00,0,WeatherCatV1.14B232,2013-03-13 12:54:00,
2013-03-13 05:59:00,42.9,26.5,30.07,WNW,293,5.0,5.0,52,0.00,,,0.00,0,WeatherCatV1.14B232,2013-03-13 12:59:00,
2013-03-13 06:04:00,42.3,27.3,30.07,WNW,288,4.0,7.0,55,0.00,,,0.00,0,WeatherCatV1.14B232,2013-03-13 13:04:00,
2013-03-13 06:09:00,41.6,27.1,30.07,West,276,4.0,5.0,56,0.00,,,0.00,0,WeatherCatV1.14B232,2013-03-13 13:09:00,
2013-03-13 06:14:00,40.8,27.2,30.14,West,279,5.0,5.0,58,0.00,,,0.00,0,WeatherCatV1.14B232,2013-03-13 13:14:00,
2013-03-13 06:19:00,40.1,27.3,30.14,WNW,303,5.0,6.0,60,0.00,,,0.00,0,WeatherCatV1.14B232,2013-03-13 13:19:00,
2013-03-13 06:24:00,39.5,27.6,30.14,WNW,299,3.0,6.0,62,0.00,,,0.00,0,WeatherCatV1.14B232,2013-03-13 13:24:00,
2013-03-13 06:29:00,39.3,27.4,30.16,WNW,293,4.0,4.0,62,0.00,,,0.00,0,WeatherCatV1.14B232,2013-03-13 13:29:00,
2013-03-13 06:34:00,39.2,27.3,30.16,WNW,293,3.0,5.0,62,0.00,,,0.00,0,WeatherCatV1.14B232,2013-03-13 13:34:00,
2013-03-13 06:39:00,39.2,27.3,30.16,WNW,297,4.0,5.0,62,0.00,,,0.00,0,WeatherCatV1.14B232,2013-03-13 13:39:00,
2013-03-13 06:44:00,39.2,27.3,30.16,WNW,288,3.0,4.0,62,0.00,,,0.00,0,WeatherCatV1.14B232,2013-03-13 13:44:00,
2013-03-13 06:49:00,39.3,27.0,30.16,WNW,288,4.0,5.0,61,0.00,,,0.00,0,WeatherCatV1.14B232,2013-03-13 13:49:00,
2013-03-13 06:54:00,39.5,26.8,30.16,WNW,293,4.0,5.0,60,0.00,,,0.00,0,WeatherCatV1.14B232,2013-03-13 13:54:00,
2013-03-13 06:59:00,39.6,26.1,30.14,WNW,301,5.0,6.0,58,0.00,,,0.00,0,WeatherCatV1.14B232,2013-03-13 13:59:00,
2013-03-13 07:04:00,40.1,26.5,30.14,WNW,303,5.0,7.0,58,0.00,,,0.00,0,WeatherCatV1.14B232,2013-03-13 14:04:00,
2013-03-13 07:09:00,40.3,25.9,30.14,WNW,293,4.0,6.0,56,0.00,,,0.00,0,WeatherCatV1.14B232,2013-03-13 14:09:00,
2013-03-13 07:14:00,40.6,26.6,30.18,NW,306,7.0,7.0,57,0.00,,,0.00,0,WeatherCatV1.14B232,2013-03-13 14:14:00,
2013-03-13 07:19:00,40.8,24.6,30.18,NW,305,9.0,9.0,52,0.00,,,0.00,7,WeatherCatV1.14B232,2013-03-13 14:19:00,
2013-03-13 07:24:00,41.2,22.5,30.18,WNW,301,5.0,5.0,47,0.00,,,0.00,9,WeatherCatV1.14B232,2013-03-13 14:24:00,
2013-03-13 07:29:00,41.6,21.9,30.19,NW,312,0.0,4.0,45,0.00,,,0.00,11,WeatherCatV1.14B232,2013-03-13 14:29:00,
2013-03-13 07:34:00,41.8,20.4,30.19,NW,307,2.0,3.0,42,0.00,,,0.00,14,WeatherCatV1.14B232,2013-03-13 14:34:00,
2013-03-13 07:39:00,41.9,19.9,30.19,NW,307,0.0,0.0,41,0.00,,,0.00,18,WeatherCatV1.14B232,2013-03-13 14:39:00,
2013-03-13 07:44:00,42.1,18.3,30.19,NW,307,0.0,0.0,38,0.00,,,0.00,26,WeatherCatV1.14B232,2013-03-13 14:44:00,
2013-03-13 07:49:00,42.2,16.5,30.19,NW,307,1.0,4.0,35,0.00,,,0.00,32,WeatherCatV1.14B232,2013-03-13 14:49:00,
2013-03-13 07:54:00,42.6,15.5,30.19,NW,307,0.0,0.0,33,0.00,,,0.00,54,WeatherCatV1.14B232,2013-03-13 14:54:00,
2013-03-13 07:59:00,42.9,15.8,30.18,NW,307,0.0,0.0,33,0.00,,,0.00,70,WeatherCatV1.14B232,2013-03-13 14:59:00,
2013-03-13 08:04:00,43.3,17.5,30.18,NW,307,0.0,0.0,35,0.00,,,0.00,83,WeatherCatV1.14B232,2013-03-13 15:04:00,
2013-03-13 08:09:00,43.6,14.2,30.18,NW,307,0.0,2.0,30,0.00,,,0.00,104,WeatherCatV1.14B232,2013-03-13 15:09:00,
2013-03-13 08:14:00,44.5,13.4,30.18,NW,309,0.0,2.0,28,0.00,,,0.00,123,WeatherCatV1.14B232,2013-03-13 15:14:00,
2013-03-13 08:19:00,45.2,14.1,30.18,NW,309,0.0,0.0,28,0.00,,,0.00,135,WeatherCatV1.14B232,2013-03-13 15:19:00,
2013-03-13 08:24:00,45.5,13.5,30.18,NW,309,0.0,0.0,27,0.00,,,0.00,153,WeatherCatV1.14B232,2013-03-13 15:24:00,
2013-03-13 08:29:00,45.8,13.7,30.17,NW,309,0.0,1.0,27,0.00,,,0.00,171,WeatherCatV1.14B232,2013-03-13 15:29:00,
2013-03-13 08:34:00,46.2,14.1,30.17,NW,309,0.0,2.0,27,0.00,,,0.00,185,WeatherCatV1.14B232,2013-03-13 15:34:00,
2013-03-13 08:39:00,46.5,13.5,30.17,NW,314,0.0,0.0,26,0.00,,,0.00,204,WeatherCatV1.14B232,2013-03-13 15:39:00,
2013-03-13 08:44:00,46.8,12.9,30.18,NW,315,0.0,2.0,25,0.00,,,0.00,213,WeatherCatV1.14B232,2013-03-13 15:44:00,
2013-03-13 08:49:00,47.0,13.0,30.18,NW,315,2.0,3.0,25,0.00,,,0.00,234,WeatherCatV1.14B232,2013-03-13 15:49:00,
2013-03-13 08:54:00,47.3,13.3,30.18,NW,308,2.0,3.0,25,0.00,,,0.00,255,WeatherCatV1.14B232,2013-03-13 15:54:00,
2013-03-13 08:59:00,47.6,13.5,30.18,NW,308,3.0,3.0,25,0.00,,,0.00,272,WeatherCatV1.14B232,2013-03-13 15:59:00,
2013-03-13 09:04:00,47.7,11.7,30.18,NW,318,3.0,5.0,23,0.00,,,0.00,288,WeatherCatV1.14B232,2013-03-13 16:04:00,
2013-03-13 09:09:00,47.9,14.7,30.18,WNW,288,4.0,5.0,26,0.00,,,0.00,304,WeatherCatV1.14B232,2013-03-13 16:09:00,
2013-03-13 09:14:00,48.0,15.6,30.18,WNW,288,4.0,4.0,27,0.00,,,0.00,322,WeatherCatV1.14B232,2013-03-13 16:14:00,
2013-03-13 09:19:00,48.2,14.9,30.18,WNW,297,0.0,4.0,26,0.00,,,0.00,343,WeatherCatV1.14B232,2013-03-13 16:19:00,
2013-03-13 09:24:00,48.0,13.9,30.18,WNW,298,1.0,5.0,25,0.00,,,0.00,360,WeatherCatV1.14B232,2013-03-13 16:24:00,
2013-03-13 09:29:00,48.2,14.0,30.18,NW,322,2.0,4.0,25,0.00,,,0.00,381,WeatherCatV1.14B232,2013-03-13 16:29:00,
2013-03-13 09:34:00,48.3,11.2,30.18,NW,306,0.0,3.0,22,0.00,,,0.00,378,WeatherCatV1.14B232,2013-03-13 16:34:00,
2013-03-13 09:39:00,48.6,12.5,30.18,NW,306,3.0,4.0,23,0.00,,,0.00,406,WeatherCatV1.14B232,2013-03-13 16:39:00,
2013-03-13 09:44:00,48.8,14.6,30.17,NW,304,5.0,6.0,25,0.00,,,0.00,357,WeatherCatV1.14B232,2013-03-13 16:44:00,
2013-03-13 09:49:00,48.9,11.8,30.17,WNW,299,4.0,5.0,22,0.00,,,0.00,415,WeatherCatV1.14B232,2013-03-13 16:49:00,
2013-03-13 09:54:00,49.1,11.9,30.17,WNW,297,4.0,6.0,22,0.00,,,0.00,461,WeatherCatV1.14B232,2013-03-13 16:54:00,
2013-03-13 09:59:00,49.4,12.2,30.18,WNW,297,3.0,5.0,22,0.00,,,0.00,455,WeatherCatV1.14B232,2013-03-13 16:59:00,
2013-03-13 10:04:00,49.5,11.2,30.18,WNW,303,3.0,4.0,21,0.00,,,0.00,464,WeatherCatV1.14B232,2013-03-13 17:04:00,
2013-03-13 10:09:00,49.6,12.3,30.18,NW,310,5.0,6.0,22,0.00,,,0.00,487,WeatherCatV1.14B232,2013-03-13 17:09:00,
2013-03-13 10:14:00,49.8,11.5,30.19,WNW,288,4.0,6.0,21,0.00,,,0.00,494,WeatherCatV1.14B232,2013-03-13 17:14:00,
2013-03-13 10:19:00,49.8,13.5,30.19,WNW,297,3.0,5.0,23,0.00,,,0.00,541,WeatherCatV1.14B232,2013-03-13 17:19:00,
2013-03-13 10:24:00,50.1,17.4,30.19,WNW,301,4.0,5.0,27,0.00,,,0.00,512,WeatherCatV1.14B232,2013-03-13 17:24:00,
2013-03-13 10:29:00,50.2,16.7,30.18,West,276,4.0,5.0,26,0.00,,,0.00,508,WeatherCatV1.14B232,2013-03-13 17:29:00,
2013-03-13 10:34:00,50.4,15.9,30.18,WNW,283,4.0,7.0,25,0.00,,,0.00,545,WeatherCatV1.14B232,2013-03-13 17:34:00,
2013-03-13 10:39:00,50.5,15.1,30.18,WNW,283,9.0,9.0,24,0.00,,,0.00,552,WeatherCatV1.14B232,2013-03-13 17:39:00,
2013-03-13 10:44:00,50.7,15.2,30.17,WNW,288,5.0,7.0,24,0.00,,,0.00,510,WeatherCatV1.14B232,2013-03-13 17:44:00,
2013-03-13 10:49:00,51.0,16.4,30.17,WNW,288,5.0,9.0,25,0.00,,,0.00,550,WeatherCatV1.14B232,2013-03-13 17:49:00,
2013-03-13 10:54:00,51.1,19.1,30.17,WNW,283,5.0,7.0,28,0.00,,,0.00,638,WeatherCatV1.14B232,2013-03-13 17:54:00,
2013-03-13 10:59:00,51.3,19.3,30.17,West,278,5.0,10.0,28,0.00,,,0.00,617,WeatherCatV1.14B232,2013-03-13 17:59:00,
2013-03-13 11:04:00,51.4,18.6,30.17,WNW,303,9.0,12.0,27,0.00,,,0.00,677,WeatherCatV1.14B232,2013-03-13 18:04:00,
2013-03-13 11:09:00,51.7,18.8,30.17,WNW,293,6.0,8.0,27,0.00,,,0.00,671,WeatherCatV1.14B232,2013-03-13 18:09:00,
2013-03-13 11:14:00,51.9,19.8,30.17,WSW,237,3.0,12.0,28,0.00,,,0.00,696,WeatherCatV1.14B232,2013-03-13 18:14:00,
2013-03-13 11:19:00,52.2,20.1,30.17,WNW,288,8.0,10.0,28,0.00,,,0.00,645,WeatherCatV1.14B232,2013-03-13 18:19:00,
2013-03-13 11:24:00,52.5,22.0,30.17,West,260,7.0,12.0,30,0.00,,,0.00,687,WeatherCatV1.14B232,2013-03-13 18:24:00,
2013-03-13 11:29:00,52.6,22.1,30.17,WNW,288,8.0,14.0,30,0.00,,,0.00,714,WeatherCatV1.14B232,2013-03-13 18:29:00,
2013-03-13 11:34:00,52.9,21.5,30.17,WNW,283,7.0,11.0,29,0.00,,,0.00,749,WeatherCatV1.14B232,2013-03-13 18:34:00,
2013-03-13 11:39:00,53.2,21.0,30.17,West,279,9.0,9.0,28,0.00,,,0.00,707,WeatherCatV1.14B232,2013-03-13 18:39:00,
2013-03-13 11:44:00,53.6,19.6,30.16,WSW,249,5.0,11.0,26,0.00,,,0.00,628,WeatherCatV1.14B232,2013-03-13 18:44:00,
2013-03-13 11:49:00,53.9,21.6,30.16,West,264,5.0,11.0,28,0.00,,,0.00,696,WeatherCatV1.14B232,2013-03-13 18:49:00,
2013-03-13 11:54:00,54.1,21.7,30.16,WNW,283,10.0,11.0,28,0.00,,,0.00,670,WeatherCatV1.14B232,2013-03-13 18:54:00,
2013-03-13 11:59:00,54.1,21.7,30.15,West,272,4.0,10.0,28,0.00,,,0.00,640,WeatherCatV1.14B232,2013-03-13 18:59:00,
2013-03-13 12:04:00,54.2,22.6,30.15,West,273,7.0,10.0,29,0.00,,,0.00,571,WeatherCatV1.14B232,2013-03-13 19:04:00,
2013-03-13 12:09:00,54.2,21.8,30.15,WNW,288,7.0,11.0,28,0.00,,,0.00,642,WeatherCatV1.14B232,2013-03-13 19:09:00,
2013-03-13 12:14:00,54.4,18.4,30.17,WNW,297,7.0,15.0,24,0.00,,,0.00,647,WeatherCatV1.14B232,2013-03-13 19:14:00,
2013-03-13 12:19:00,54.5,19.4,30.17,West,272,7.0,10.0,25,0.00,,,0.00,758,WeatherCatV1.14B232,2013-03-13 19:19:00,
2013-03-13 12:24:00,54.8,17.7,30.17,West,273,9.0,13.0,23,0.00,,,0.00,661,WeatherCatV1.14B232,2013-03-13 19:24:00,
2013-03-13 12:29:00,55.1,14.8,30.15,West,259,8.0,14.0,20,0.00,,,0.00,533,WeatherCatV1.14B232,2013-03-13 19:29:00,
2013-03-13 12:34:00,55.6,16.3,30.15,WNW,293,7.0,12.0,21,0.00,,,0.00,754,WeatherCatV1.14B232,2013-03-13 19:34:00,
2013-03-13 12:39:00,56.0,14.3,30.15,WSW,256,10.0,10.0,19,0.00,,,0.00,786,WeatherCatV1.14B232,2013-03-13 19:39:00,
2013-03-13 12:44:00,56.5,12.2,30.14,NW,313,11.0,13.0,17,0.00,,,0.00,954,WeatherCatV1.14B232,2013-03-13 19:44:00,
2013-03-13 12:49:00,56.9,13.9,30.14,WNW,283,10.0,12.0,18,0.00,,,0.00,710,WeatherCatV1.14B232,2013-03-13 19:49:00,
2013-03-13 12:54:00,56.9,13.9,30.14,WNW,299,12.0,15.0,18,0.00,,,0.00,726,WeatherCatV1.14B232,2013-03-13 19:54:00,
2013-03-13 12:59:00,57.0,11.3,30.14,WNW,288,11.0,12.0,16,0.00,,,0.00,805,WeatherCatV1.14B232,2013-03-13 19:59:00,
2013-03-13 13:04:00,57.0,13.9,30.14,WNW,283,10.0,13.0,18,0.00,,,0.00,659,WeatherCatV1.14B232,2013-03-13 20:04:00,
2013-03-13 13:09:00,56.9,16.3,30.14,WSW,258,11.0,13.0,20,0.00,,,0.00,643,WeatherCatV1.14B232,2013-03-13 20:09:00,
2013-03-13 13:14:00,57.0,18.5,30.13,WSW,258,5.0,11.0,22,0.00,,,0.00,930,WeatherCatV1.14B232,2013-03-13 20:14:00,
2013-03-13 13:19:00,57.5,17.9,30.13,West,259,6.0,11.0,21,0.00,,,0.00,826,WeatherCatV1.14B232,2013-03-13 20:19:00,
2013-03-13 13:24:00,57.6,18.0,30.13,West,278,9.0,12.0,21,0.00,,,0.00,703,WeatherCatV1.14B232,2013-03-13 20:24:00,
2013-03-13 13:29:00,57.8,15.8,30.12,WNW,283,2.0,13.0,19,0.00,,,0.00,663,WeatherCatV1.14B232,2013-03-13 20:29:00,
2013-03-13 13:34:00,58.1,17.3,30.12,West,259,11.0,11.0,20,0.00,,,0.00,840,WeatherCatV1.14B232,2013-03-13 20:34:00,
2013-03-13 13:39:00,58.3,17.4,30.12,WNW,293,8.0,11.0,20,0.00,,,0.00,798,WeatherCatV1.14B232,2013-03-13 20:39:00,
2013-03-13 13:44:00,58.4,16.3,30.12,NW,305,9.0,10.0,19,0.00,,,0.00,666,WeatherCatV1.14B232,2013-03-13 20:44:00,
2013-03-13 13:49:00,58.4,18.6,30.12,West,276,11.0,14.0,21,0.00,,,0.00,654,WeatherCatV1.14B232,2013-03-13 20:49:00,
2013-03-13 13:54:00,58.3,18.5,30.12,WNW,297,7.0,11.0,21,0.00,,,0.00,624,WeatherCatV1.14B232,2013-03-13 20:54:00,
2013-03-13 13:59:00,58.0,18.3,30.11,West,274,7.0,14.0,21,0.00,,,0.00,642,WeatherCatV1.14B232,2013-03-13 20:59:00,
2013-03-13 14:04:00,58.0,18.3,30.11,NW,305,10.0,14.0,21,0.00,,,0.00,969,WeatherCatV1.14B232,2013-03-13 21:04:00,
2013-03-13 14:09:00,58.0,19.4,30.11,NW,323,5.0,13.0,22,0.00,,,0.00,863,WeatherCatV1.14B232,2013-03-13 21:09:00,
2013-03-13 14:14:00,58.1,19.5,30.10,NW,305,6.0,12.0,22,0.00,,,0.00,693,WeatherCatV1.14B232,2013-03-13 21:14:00,
2013-03-13 14:19:00,58.1,18.4,30.10,WNW,283,10.0,14.0,21,0.00,,,0.00,786,WeatherCatV1.14B232,2013-03-13 21:19:00,
2013-03-13 14:24:00,58.0,17.2,30.10,WNW,303,6.0,13.0,20,0.00,,,0.00,642,WeatherCatV1.14B232,2013-03-13 21:24:00,
2013-03-13 14:30:00,58.1,18.4,30.10,NW,315,11.0,12.0,21,0.00,,,0.00,682,WeatherCatV1.14B232,2013-03-13 21:30:00,
2013-03-13 14:35:00,58.3,17.4,30.10,WNW,288,7.0,13.0,20,0.00,,,0.00,898,WeatherCatV1.14B232,2013-03-13 21:35:00,
2013-03-13 14:40:00,58.6,18.8,30.10,WNW,288,4.0,10.0,21,0.00,,,0.00,737,WeatherCatV1.14B232,2013-03-13 21:40:00,
2013-03-13 14:45:00,58.9,19.0,30.08,West,262,6.0,10.0,21,0.00,,,0.00,520,WeatherCatV1.14B232,2013-03-13 21:45:00,
2013-03-13 14:50:00,58.9,23.1,30.08,West,268,6.0,11.0,25,0.00,,,0.00,621,WeatherCatV1.14B232,2013-03-13 21:50:00,
2013-03-13 14:55:00,59.0,21.3,30.08,WNW,293,7.0,10.0,23,0.00,,,0.00,608,WeatherCatV1.14B232,2013-03-13 21:55:00,
2013-03-13 15:00:00,59.0,20.2,30.08,West,274,6.0,7.0,22,0.00,,,0.00,417,WeatherCatV1.14B232,2013-03-13 22:00:00,
2013-03-13 15:05:00,58.7,20.0,30.08,WNW,283,5.0,11.0,22,0.00,,,0.00,381,WeatherCatV1.14B232,2013-03-13 22:05:00,
2013-03-13 15:10:00,58.3,19.6,30.08,WNW,283,5.0,7.0,22,0.00,,,0.00,376,WeatherCatV1.14B232,2013-03-13 22:10:00,
2013-03-13 15:15:00,58.0,20.4,30.11,WNW,300,5.0,6.0,23,0.00,,,0.00,461,WeatherCatV1.14B232,2013-03-13 22:15:00,
2013-03-13 15:20:00,57.8,19.2,30.11,WNW,293,4.0,6.0,22,0.00,,,0.00,373,WeatherCatV1.14B232,2013-03-13 22:20:00,
2013-03-13 15:25:00,57.6,20.1,30.11,West,273,5.0,6.0,23,0.00,,,0.00,457,WeatherCatV1.14B232,2013-03-13 22:25:00,
2013-03-13 15:30:00,57.6,20.1,30.10,NW,307,3.0,6.0,23,0.00,,,0.00,432,WeatherCatV1.14B232,2013-03-13 22:30:00,
2013-03-13 15:35:00,57.8,20.3,30.10,WNW,293,3.0,7.0,23,0.00,,,0.00,385,WeatherCatV1.14B232,2013-03-13 22:35:00,
2013-03-13 15:40:00,57.8,20.3,30.10,WNW,288,3.0,5.0,23,0.00,,,0.00,476,WeatherCatV1.14B232,2013-03-13 22:40:00,
2013-03-13 15:45:00,57.8,18.1,30.10,West,274,2.0,6.0,21,0.00,,,0.00,471,WeatherCatV1.14B232,2013-03-13 22:45:00,
2013-03-13 15:50:00,58.1,20.5,30.10,WNW,303,2.0,7.0,23,0.00,,,0.00,369,WeatherCatV1.14B232,2013-03-13 22:50:00,
2013-03-13 15:55:00,58.1,18.4,30.10,WNW,288,3.0,9.0,21,0.00,,,0.00,323,WeatherCatV1.14B232,2013-03-13 22:55:00,
2013-03-13 16:00:00,58.0,20.4,30.10,West,264,0.0,6.0,23,0.00,,,0.00,392,WeatherCatV1.14B232,2013-03-13 23:00:00,
2013-03-13 16:05:00,58.1,21.5,30.10,WNW,293,6.0,7.0,24,0.00,,,0.00,478,WeatherCatV1.14B232,2013-03-13 23:05:00,
2013-03-13 16:10:00,58.1,20.5,30.10,West,279,5.0,9.0,23,0.00,,,0.00,580,WeatherCatV1.14B232,2013-03-13 23:10:00,
2013-03-13 16:15:00,58.1,19.5,30.10,WNW,293,4.0,9.0,22,0.00,,,0.00,554,WeatherCatV1.14B232,2013-03-13 23:15:00,
2013-03-13 16:20:00,58.3,20.7,30.10,WSW,240,2.0,7.0,23,0.00,,,0.00,279,WeatherCatV1.14B232,2013-03-13 23:20:00,
2013-03-13 16:25:00,58.4,20.8,30.10,West,274,4.0,6.0,23,0.00,,,0.00,315,WeatherCatV1.14B232,2013-03-13 23:25:00,
2013-03-13 16:30:00,58.1,20.5,30.10,WNW,301,4.0,7.0,23,0.00,,,0.00,316,WeatherCatV1.14B232,2013-03-13 23:30:00,
2013-03-13 16:35:00,57.8,21.3,30.10,NW,315,5.0,6.0,24,0.00,,,0.00,492,WeatherCatV1.14B232,2013-03-13 23:35:00,
2013-03-13 16:40:00,57.8,21.3,30.10,NW,310,6.0,10.0,24,0.00,,,0.00,512,WeatherCatV1.14B232,2013-03-13 23:40:00,
2013-03-13 16:45:00,57.8,20.3,30.10,NW,307,6.0,11.0,23,0.00,,,0.00,455,WeatherCatV1.14B232,2013-03-13 23:45:00,
2013-03-13 16:50:00,57.8,21.3,30.10,WNW,288,7.0,10.0,24,0.00,,,0.00,483,WeatherCatV1.14B232,2013-03-13 23:50:00,
2013-03-13 16:55:00,57.8,20.3,30.10,WNW,297,3.0,9.0,23,0.00,,,0.00,492,WeatherCatV1.14B232,2013-03-13 23:55:00,
2013-03-13 17:00:00,57.8,19.2,30.10,WSW,252,9.0,11.0,22,0.00,,,0.00,485,WeatherCatV1.14B232,2013-03-14 00:00:00,
2013-03-13 17:05:00,57.8,20.3,30.10,WNW,293,4.0,10.0,23,0.00,,,0.00,417,WeatherCatV1.14B232,2013-03-14 00:05:00,
2013-03-13 17:10:00,57.6,20.1,30.10,NW,309,7.0,12.0,23,0.00,,,0.00,359,WeatherCatV1.14B232,2013-03-14 00:10:00,
2013-03-13 17:15:00,57.6,19.0,30.10,WNW,288,5.0,7.0,22,0.00,,,0.00,329,WeatherCatV1.14B232,2013-03-14 00:15:00,
2013-03-13 17:20:00,57.6,19.0,30.10,West,279,5.0,9.0,22,0.00,,,0.00,250,WeatherCatV1.14B232,2013-03-14 00:20:00,
2013-03-13 17:25:00,57.5,20.0,30.10,West,278,9.0,12.0,23,0.00,,,0.00,253,WeatherCatV1.14B232,2013-03-14 00:25:00,
2013-03-13 17:30:00,57.2,19.7,30.09,WNW,288,5.0,9.0,23,0.00,,,0.00,308,WeatherCatV1.14B232,2013-03-14 00:30:00,
2013-03-13 17:35:00,57.2,19.7,30.09,WNW,293,6.0,10.0,23,0.00,,,0.00,343,WeatherCatV1.14B232,2013-03-14 00:35:00,
2013-03-13 17:40:00,57.3,19.8,30.09,West,261,9.0,10.0,23,0.00,,,0.00,262,WeatherCatV1.14B232,2013-03-14 00:40:00,
2013-03-13 17:45:00,57.5,21.0,30.09,WNW,288,4.0,7.0,24,0.00,,,0.00,274,WeatherCatV1.14B232,2013-03-14 00:45:00,
2013-03-13 17:50:00,57.5,21.0,30.09,WNW,297,5.0,6.0,24,0.00,,,0.00,214,WeatherCatV1.14B232,2013-03-14 00:50:00,
2013-03-13 17:55:00,57.3,20.8,30.09,WNW,283,6.0,8.0,24,0.00,,,0.00,248,WeatherCatV1.14B232,2013-03-14 00:55:00,
2013-03-13 18:00:00,57.3,20.8,30.10,WNW,293,7.0,10.0,24,0.00,,,0.00,232,WeatherCatV1.14B232,2013-03-14 01:00:00,
2013-03-13 18:05:00,57.2,21.7,30.10,West,272,3.0,9.0,25,0.00,,,0.00,216,WeatherCatV1.14B232,2013-03-14 01:05:00,
2013-03-13 18:10:00,57.2,21.7,30.10,WNW,297,5.0,10.0,25,0.00,,,0.00,197,WeatherCatV1.14B232,2013-03-14 01:10:00,
2013-03-13 18:15:00,57.0,22.5,30.13,West,268,6.0,7.0,26,0.00,,,0.00,195,WeatherCatV1.14B232,2013-03-14 01:15:00,
2013-03-13 18:20:00,56.9,22.4,30.13,WNW,283,6.0,9.0,26,0.00,,,0.00,169,WeatherCatV1.14B232,2013-03-14 01:20:00,
2013-03-13 18:25:00,56.7,23.1,30.13,WNW,283,7.0,9.0,27,0.00,,,0.00,142,WeatherCatV1.14B232,2013-03-14 01:25:00,
2013-03-13 18:30:00,56.6,23.0,30.14,WNW,288,6.0,10.0,27,0.00,,,0.00,127,WeatherCatV1.14B232,2013-03-14 01:30:00,
2013-03-13 18:35:00,56.5,23.8,30.14,WSW,241,6.0,9.0,28,0.00,,,0.00,105,WeatherCatV1.14B232,2013-03-14 01:35:00,
2013-03-13 18:40:00,56.2,23.5,30.14,WNW,288,8.0,10.0,28,0.00,,,0.00,90,WeatherCatV1.14B232,2013-03-14 01:40:00,
2013-03-13 18:45:00,55.7,23.1,30.14,West,266,5.0,7.0,28,0.00,,,0.00,42,WeatherCatV1.14B232,2013-03-14 01:45:00,
2013-03-13 18:50:00,55.1,23.4,30.14,WNW,288,4.0,10.0,29,0.00,,,0.00,30,WeatherCatV1.14B232,2013-03-14 01:50:00,
2013-03-13 18:55:00,54.7,23.9,30.14,WNW,293,7.0,9.0,30,0.00,,,0.00,21,WeatherCatV1.14B232,2013-03-14 01:55:00,
2013-03-13 19:00:00,54.1,24.1,30.15,WNW,283,5.0,9.0,31,0.00,,,0.00,16,WeatherCatV1.14B232,2013-03-14 02:00:00,
2013-03-13 19:05:00,53.5,25.1,30.15,WNW,301,5.0,11.0,33,0.00,,,0.00,5,WeatherCatV1.14B232,2013-03-14 02:05:00,
2013-03-13 19:10:00,53.1,26.2,30.15,WNW,288,9.0,11.0,35,0.00,,,0.00,0,WeatherCatV1.14B232,2013-03-14 02:10:00,
2013-03-13 19:15:00,52.6,27.7,30.13,West,278,4.0,10.0,38,0.00,,,0.00,0,WeatherCatV1.14B232,2013-03-14 02:15:00,
2013-03-13 19:20:00,52.2,27.4,30.13,WNW,288,4.0,11.0,38,0.00,,,0.00,0,WeatherCatV1.14B232,2013-03-14 02:20:00,
2013-03-13 19:25:00,51.7,28.8,30.13,WNW,293,6.0,11.0,41,0.00,,,0.00,0,WeatherCatV1.14B232,2013-03-14 02:25:00,
2013-03-13 19:30:00,51.4,29.7,30.14,NW,312,8.0,11.0,43,0.00,,,0.00,0,WeatherCatV1.14B232,2013-03-14 02:30:00,
2013-03-13 19:35:00,51.1,30.5,30.14,NW,307,7.0,10.0,45,0.00,,,0.00,0,WeatherCatV1.14B232,2013-03-14 02:35:00,
2013-03-13 19:40:00,50.8,30.8,30.14,NW,311,8.0,10.0,46,0.00,,,0.00,0,WeatherCatV1.14B232,2013-03-14 02:40:00,
2013-03-13 19:45:00,50.7,31.7,30.14,WNW,298,8.0,11.0,48,0.00,,,0.00,0,WeatherCatV1.14B232,2013-03-14 02:45:00,
2013-03-13 19:50:00,50.4,32.0,30.14,WNW,288,9.0,10.0,49,0.00,,,0.00,0,WeatherCatV1.14B232,2013-03-14 02:50:00,
2013-03-13 19:55:00,50.2,32.3,30.14,WNW,288,5.0,11.0,50,0.00,,,0.00,0,WeatherCatV1.14B232,2013-03-14 02:55:00,
2013-03-13 20:00:00,50.1,32.7,30.15,NW,304,6.0,7.0,51,0.00,,,0.00,0,WeatherCatV1.14B232,2013-03-14 03:00:00,
2013-03-13 20:05:00,49.9,32.5,30.15,NW,304,6.0,9.0,51,0.00,,,0.00,0,WeatherCatV1.14B232,2013-03-14 03:05:00,
2013-03-13 20:10:00,49.8,32.9,30.15,WNW,299,9.0,9.0,52,0.00,,,0.00,0,WeatherCatV1.14B232,2013-03-14 03:10:00,
2013-03-13 20:15:00,49.6,32.7,30.11,NW,305,5.0,10.0,52,0.00,,,0.00,0,WeatherCatV1.14B232,2013-03-14 03:15:00,
2013-03-13 20:20:00,49.5,32.6,30.11,NW,305,5.0,5.0,52,0.00,,,0.00,0,WeatherCatV1.14B232,2013-03-14 03:20:00,
2013-03-13 20:25:00,49.4,33.0,30.11,WNW,301,2.0,6.0,53,0.00,,,0.00,0,WeatherCatV1.14B232,2013-03-14 03:25:00,
2013-03-13 20:30:00,49.2,32.8,30.12,WNW,303,2.0,5.0,53,0.00,,,0.00,0,WeatherCatV1.14B232,2013-03-14 03:30:00,
2013-03-13 20:35:00,49.1,32.2,30.12,WNW,299,5.0,5.0,52,0.00,,,0.00,0,WeatherCatV1.14B232,2013-03-14 03:35:00,
2013-03-13 20:40:00,49.1,32.2,30.12,WNW,297,6.0,7.0,52,0.00,,,0.00,0,WeatherCatV1.14B232,2013-03-14 03:40:00,
2013-03-13 20:45:00,49.1,32.2,30.13,WNW,293,3.0,7.0,52,0.00,,,0.00,0,WeatherCatV1.14B232,2013-03-14 03:45:00,
2013-03-13 20:50:00,49.1,31.8,30.13,WNW,293,7.0,7.0,51,0.00,,,0.00,0,WeatherCatV1.14B232,2013-03-14 03:50:00,
2013-03-13 20:55:00,48.9,31.6,30.13,WNW,293,5.0,6.0,51,0.00,,,0.00,0,WeatherCatV1.14B232,2013-03-14 03:55:00,
2013-03-13 21:00:00,48.9,31.1,30.14,WNW,298,3.0,8.0,50,0.00,,,0.00,0,WeatherCatV1.14B232,2013-03-14 04:00:00,
2013-03-13 21:01:00,48.9,31.6,30.14,WNW,297,6.0,6.0,51,0.00,,,0.00,0,WeatherCatV1.14B232,2013-03-14 04:01:00,
2013-03-13 21:05:00,48.8,31.0,30.14,WNW,293,5.0,7.0,50,0.00,,,0.00,0,WeatherCatV1.14B232,2013-03-14 04:05:00,
2013-03-13 21:10:00,48.6,30.3,30.14,WNW,288,5.0,10.0,49,0.00,,,0.00,0,WeatherCatV1.14B232,2013-03-14 04:10:00,
2013-03-13 21:15:00,48.6,29.8,30.12,WNW,288,4.0,9.0,48,0.00,,,0.00,0,WeatherCatV1.14B232,2013-03-14 04:15:00,
2013-03-13 21:20:00,48.6,29.3,30.12,WNW,301,5.0,7.0,47,0.00,,,0.00,0,WeatherCatV1.14B232,2013-03-14 04:20:00,
2013-03-13 21:25:00,48.8,28.4,30.12,WNW,288,7.0,9.0,45,0.00,,,0.00,0,WeatherCatV1.14B232,2013-03-14 04:25:00,
2013-03-13 21:27:00,48.8,28.9,30.12,WNW,293,7.0,9.0,46,0.00,,,0.00,0,WeatherCatV1.14B232,2013-03-14 04:27:00,
2013-03-13 21:32:00,48.8,27.9,30.12,WNW,293,6.0,10.0,44,0.00,,,0.00,0,WeatherCatV1.14B232,2013-03-14 04:32:00,
2013-03-13 21:37:00,48.9,26.8,30.12,West,270,4.0,9.0,42,0.00,,,0.00,0,WeatherCatV1.14B232,2013-03-14 04:37:00,
2013-03-13 21:42:00,49.1,27.0,30.12,WNW,288,4.0,6.0,42,0.00,,,0.00,0,WeatherCatV1.14B232,2013-03-14 04:42:00,
2013-03-13 21:47:00,48.9,26.2,30.13,WNW,297,5.0,9.0,41,0.00,,,0.00,0,WeatherCatV1.14B232,2013-03-14 04:47:00,
2013-03-13 21:53:00,49.1,25.8,30.13,WNW,301,7.0,7.0,40,0.00,,,0.00,0,WeatherCatV1.14B232,2013-03-14 04:53:00,
2013-03-13 21:58:00,49.1,25.2,30.13,NW,310,8.0,9.0,39,0.00,,,0.00,0,WeatherCatV1.14B232,2013-03-14 04:58:00,
2013-03-13 22:03:00,49.2,25.3,30.13,NW,308,3.0,7.0,39,0.00,,,0.00,0,WeatherCatV1.14B232,2013-03-14 05:03:00,
2013-03-13 22:08:00,49.1,25.2,30.13,NW,310,5.0,6.0,39,0.00,,,0.00,0,WeatherCatV1.14B232,2013-03-14 05:08:00,
2013-03-13 22:13:00,49.1,25.8,30.13,WNW,301,5.0,7.0,40,0.00,,,0.00,0,WeatherCatV1.14B232,2013-03-14 05:13:00,
2013-03-13 22:18:00,48.9,25.7,30.11,NW,305,6.0,7.0,40,0.00,,,0.00,0,WeatherCatV1.14B232,2013-03-14 05:18:00,
2013-03-13 22:23:00,48.9,25.7,30.11,NW,317,1.0,5.0,40,0.00,,,0.00,0,WeatherCatV1.14B232,2013-03-14 05:23:00,
2013-03-13 22:28:00,48.8,25.6,30.11,NW,314,5.0,5.0,40,0.00,,,0.00,0,WeatherCatV1.14B232,2013-03-14 05:28:00,
2013-03-13 22:33:00,48.8,25.6,30.11,NW,308,5.0,7.0,40,0.00,,,0.00,0,WeatherCatV1.14B232,2013-03-14 05:33:00,
2013-03-13 22:38:00,48.8,25.0,30.11,NW,305,4.0,6.0,39,0.00,,,0.00,0,WeatherCatV1.14B232,2013-03-14 05:38:00,
2013-03-13 22:43:00,48.8,25.0,30.11,WNW,298,5.0,7.0,39,0.00,,,0.00,0,WeatherCatV1.14B232,2013-03-14 05:43:00,
2013-03-13 22:48:00,48.8,25.0,30.12,WNW,293,6.0,6.0,39,0.00,,,0.00,0,WeatherCatV1.14B232,2013-03-14 05:48:00,
2013-03-13 22:53:00,48.9,24.4,30.12,WNW,297,4.0,6.0,38,0.00,,,0.00,0,WeatherCatV1.14B232,2013-03-14 05:53:00,
2013-03-13 22:58:00,48.9,23.1,30.12,NW,304,4.0,7.0,36,0.00,,,0.00,0,WeatherCatV1.14B232,2013-03-14 05:58:00,
2013-03-13 23:03:00,48.9,23.1,30.12,NW,312,5.0,5.0,36,0.00,,,0.00,0,WeatherCatV1.14B232,2013-03-14 06:03:00,
2013-03-13 23:08:00,48.9,23.1,30.12,WNW,300,5.0,11.0,36,0.00,,,0.00,0,WeatherCatV1.14B232,2013-03-14 06:08:00,
2013-03-13 23:13:00,49.1,22.0,30.12,WNW,293,5.0,7.0,34,0.00,,,0.00,0,WeatherCatV1.14B232,2013-03-14 06:13:00,
2013-03-13 23:18:00,49.2,22.0,30.11,WNW,297,7.0,7.0,34,0.00,,,0.00,0,WeatherCatV1.14B232,2013-03-14 06:18:00,
2013-03-13 23:23:00,49.4,22.2,30.11,WNW,288,6.0,7.0,34,0.00,,,0.00,0,WeatherCatV1.14B232,2013-03-14 06:23:00,
2013-03-13 23:28:00,49.2,22.0,30.11,WNW,293,5.0,7.0,34,0.00,,,0.00,0,WeatherCatV1.14B232,2013-03-14 06:28:00,
2013-03-13 23:33:00,49.1,22.6,30.11,WNW,293,5.0,7.0,35,0.00,,,0.00,0,WeatherCatV1.14B232,2013-03-14 06:33:00,
2013-03-13 23:38:00,48.9,22.5,30.11,WNW,299,3.0,8.0,35,0.00,,,0.00,0,WeatherCatV1.14B232,2013-03-14 06:38:00,
2013-03-13 23:43:00,48.6,22.2,30.11,West,278,6.0,8.0,35,0.00,,,0.00,0,WeatherCatV1.14B232,2013-03-14 06:43:00,
2013-03-13 23:48:00,48.5,22.1,30.10,WNW,299,5.0,10.0,35,0.00,,,0.00,0,WeatherCatV1.14B232,2013-03-14 06:48:00,
2013-03-13 23:53:00,48.3,21.9,30.10,WNW,293,5.0,6.0,35,0.00,,,0.00,0,WeatherCatV1.14B232,2013-03-14 06:53:00,
2013-03-13 23:58:00,48.3,21.3,30.10,WNW,283,6.0,10.0,34,0.00,,,0.00,0,WeatherCatV1.14B232,2013-03-14 06:58:00,